• In Hungary
  • List of Countries
  • For 7 days
  • Water Temperature
  • Satellite Maps
  • Weather Map
  • News
  • Weather Widgets
  • user-avatar
    Login

    Hourly Weather Yulara

    Today, 19 October, Friday

    Time Temperature Precipitation Wind Pressure Humidity
    00:00 +33°C° 0 mm 4 mps 715 mmHg 26%
    01:00 +33°C° 0 mm 5 mps 715 mmHg 29%
    02:00 +32°C° 0 mm 5 mps 715 mmHg 33%
    03:00 +32°C° 0 mm 6 mps 714 mmHg 37%
    04:00 +30°C° 0 mm 6 mps 714 mmHg 39%
    05:00 +30°C° 0 mm 6 mps 714 mmHg 42%
    06:00 +29°C° 0 mm 6 mps 714 mmHg 44%
    07:00 +32°C° 0 mm 8 mps 715 mmHg 38%
    08:00 +34°C° 0 mm 10 mps 715 mmHg 32%
    09:00 +38°C° 0 mm 11 mps 716 mmHg 21%
    10:00 +39°C° 0 mm 10 mps 716 mmHg 18%
    11:00 +40°C° 0 mm 9 mps 716 mmHg 15%
    12:00 +41°C° 0 mm 8 mps 716 mmHg 11%
    13:00 +42°C° 0 mm 9 mps 715 mmHg 11%
    14:00 +42°C° 0 mm 9 mps 715 mmHg 10%
    15:00 +42°C° 0 mm 9 mps 715 mmHg 9%
    16:00 +40°C° 0 mm 9 mps 715 mmHg 11%
    17:00 +38°C° 0 mm 9 mps 715 mmHg 12%
    18:00 +37°C° 0 mm 9 mps 715 mmHg 13%
    19:00 +34°C° 0 mm 9 mps 716 mmHg 17%
    20:00 +32°C° 0 mm 9 mps 717 mmHg 20%
    21:00 +29°C° 0 mm 9 mps 718 mmHg 24%
    22:00 +28°C° 0 mm 9 mps 718 mmHg 25%
    23:00 +27°C° 0 mm 9 mps 718 mmHg 26%

    Tomorrow, 20 October, Saturday

    Time Temperature Precipitation Wind Pressure Humidity
    00:00 +26°C° 0 mm 9 mps 719 mmHg 27%
    01:00 +23°C° 0 mm 9 mps 719 mmHg 30%
    02:00 +22°C° 0 mm 9 mps 719 mmHg 34%
    03:00 +21°C° 0 mm 9 mps 719 mmHg 38%
    04:00 +19°C° 0 mm 9 mps 719 mmHg 42%
    05:00 +18°C° 0 mm 8 mps 720 mmHg 45%
    06:00 +17°C° 0 mm 8 mps 720 mmHg 48%
    07:00 +18°C° 0 mm 8 mps 721 mmHg 44%
    08:00 +21°C° 0 mm 8 mps 721 mmHg 40%
    09:00 +22°C° 0 mm 8 mps 722 mmHg 35%
    10:00 +24°C° 0 mm 7 mps 721 mmHg 31%
    11:00 +27°C° 0 mm 7 mps 721 mmHg 27%
    12:00 +28°C° 0 mm 6 mps 720 mmHg 23%
    13:00 +29°C° 0 mm 6 mps 720 mmHg 21%
    14:00 +30°C° 0 mm 5 mps 719 mmHg 19%
    15:00 +32°C° 0 mm 5 mps 719 mmHg 17%
    16:00 +32°C° 0 mm 4 mps 719 mmHg 17%
    17:00 +30°C° 0 mm 4 mps 719 mmHg 17%
    18:00 +30°C° 0 mm 4 mps 719 mmHg 17%
    19:00 +29°C° 0 mm 5 mps 719 mmHg 18%
    20:00 +27°C° 0 mm 5 mps 720 mmHg 19%
    21:00 +26°C° 0 mm 5 mps 720 mmHg 20%
    22:00 +24°C° 0 mm 6 mps 720 mmHg 20%
    23:00 +23°C° 0 mm 6 mps 720 mmHg 20%

    Day after tomorrow, 21 October, Sunday

    Time Temperature Precipitation Wind Pressure Humidity
    00:00 +23°C° 0 mm 6 mps 719 mmHg 20%
    01:00 +22°C° 0 mm 6 mps 719 mmHg 21%
    02:00 +21°C° 0 mm 6 mps 719 mmHg 22%
    03:00 +20°C° 0 mm 5 mps 718 mmHg 23%
    04:00 +20°C° 0 mm 5 mps 718 mmHg 24%
    05:00 +19°C° 0 mm 5 mps 718 mmHg 25%
    06:00 +19°C° 0 mm 4 mps 719 mmHg 25%
    07:00 +21°C° 0 mm 5 mps 719 mmHg 23%
    08:00 +24°C° 0 mm 6 mps 719 mmHg 20%
    09:00 +27°C° 0 mm 6 mps 720 mmHg 17%
    10:00 +29°C° 0 mm 5 mps 719 mmHg 16%
    11:00 +32°C° 0 mm 5 mps 719 mmHg 15%
    12:00 +34°C° 0 mm 4 mps 718 mmHg 14%
    13:00 +35°C° 0 mm 4 mps 717 mmHg 13%
    14:00 +36°C° 0 mm 5 mps 717 mmHg 12%
    15:00 +37°C° 0 mm 5 mps 716 mmHg 10%
    16:00 +37°C° 0 mm 4 mps 716 mmHg 11%
    17:00 +36°C° 0 mm 4 mps 715 mmHg 11%
    18:00 +36°C° 0 mm 3 mps 715 mmHg 11%
    19:00 +34°C° 0 mm 3 mps 716 mmHg 11%
    20:00 +33°C° 0 mm 3 mps 716 mmHg 12%
    21:00 +30°C° 0 mm 2 mps 716 mmHg 13%
    22:00 +30°C° 0 mm 2 mps 716 mmHg 13%
    23:00 +29°C° 0 mm 2 mps 716 mmHg 13%

    22 October, Monday

    Time Temperature Precipitation Wind Pressure Humidity
    00:00 +28°C° 0 mm 2 mps 715 mmHg 14%
    01:00 +28°C° 0 mm 3 mps 715 mmHg 15%
    02:00 +27°C° 0 mm 4 mps 714 mmHg 16%
    03:00 +26°C° 0 mm 4 mps 714 mmHg 18%
    04:00 +26°C° 0 mm 3 mps 714 mmHg 19%
    05:00 +25°C° 0 mm 3 mps 714 mmHg 21%
    06:00 +25°C° 0 mm 2 mps 714 mmHg 23%
    07:00 +28°C° 0 mm 2 mps 715 mmHg 19%
    08:00 +31°C° 0 mm 2 mps 715 mmHg 15%
    09:00 +35°C° 0 mm 2 mps 716 mmHg 12%
    10:00 +37°C° 0 mm 3 mps 716 mmHg 11%
    11:00 +38°C° 0 mm 4 mps 715 mmHg 10%
    12:00 +41°C° 0 mm 5 mps 715 mmHg 9%
    13:00 +41°C° 0 mm 6 mps 715 mmHg 9%
    14:00 +41°C° 0 mm 6 mps 714 mmHg 9%
    15:00 +43°C° 0 mm 7 mps 713 mmHg 8%
    16:00 +40°C° 0 mm 7 mps 714 mmHg 9%
    17:00 +39°C° 0 mm 7 mps 714 mmHg 11%
    18:00 +38°C° 0 mm 6 mps 714 mmHg 12%
    19:00 +35°C° 0 mm 7 mps 715 mmHg 15%
    20:00 +33°C° 0 mm 8 mps 715 mmHg 18%
    21:00 +31°C° 0 mm 8 mps 716 mmHg 21%
    22:00 +29°C° 0 mm 8 mps 716 mmHg 23%
    23:00 +28°C° 0 mm 8 mps 716 mmHg 25%

    23 October, Tuesday

    Time Temperature Precipitation Wind Pressure Humidity
    00:00 +27°C° 0 mm 8 mps 716 mmHg 28%
    01:00 +26°C° 0 mm 8 mps 716 mmHg 31%
    02:00 +24°C° 0 mm 7 mps 716 mmHg 34%
    03:00 +23°C° 0 mm 7 mps 717 mmHg 37%
    04:00 +22°C° 0 mm 7 mps 717 mmHg 39%
    05:00 +21°C° 0 mm 7 mps 717 mmHg 41%
    06:00 +20°C° 0 mm 8 mps 718 mmHg 42%
    07:00 +22°C° 0 mm 8 mps 718 mmHg 39%
    08:00 +23°C° 0 mm 8 mps 719 mmHg 36%
    09:00 +24°C° 0 mm 9 mps 719 mmHg 33%
    10:00 +27°C° 0 mm 8 mps 719 mmHg 30%
    11:00 +29°C° 0 mm 8 mps 718 mmHg 27%
    12:00 +32°C° 0 mm 8 mps 718 mmHg 23%
    13:00 +33°C° 0 mm 7 mps 717 mmHg 22%
    14:00 +34°C° 0 mm 7 mps 717 mmHg 21%
    15:00 +34°C° 0 mm 6 mps 716 mmHg 20%
    16:00 +34°C° 0 mm 6 mps 716 mmHg 20%
    17:00 +33°C° 0 mm 6 mps 716 mmHg 21%
    18:00 +33°C° 0 mm 6 mps 716 mmHg 21%
    19:00 +32°C° 0 mm 6 mps 717 mmHg 22%
    20:00 +29°C° 0 mm 7 mps 717 mmHg 23%
    21:00 +28°C° 0 mm 7 mps 717 mmHg 25%
    22:00 +27°C° 0 mm 8 mps 717 mmHg 25%
    23:00 +26°C° 0 mm 8 mps 717 mmHg 26%

    24 October, Wednesday

    Time Temperature Precipitation Wind Pressure Humidity
    00:00 +26°C° 0 mm 8 mps 717 mmHg 26%
    01:00 +24°C° 0 mm 7 mps 716 mmHg 27%
    02:00 +23°C° 0 mm 7 mps 716 mmHg 27%
    03:00 +23°C° 0 mm 7 mps 716 mmHg 28%
    04:00 +22°C° 0 mm 7 mps 716 mmHg 28%
    05:00 +22°C° 0 mm 7 mps 717 mmHg 28%
    06:00 +22°C° 0 mm 7 mps 717 mmHg 28%
    07:00 +24°C° 0 mm 7 mps 717 mmHg 26%
    08:00 +26°C° 0 mm 8 mps 717 mmHg 24%
    09:00 +28°C° 0 mm 8 mps 718 mmHg 23%
    10:00 +31°C° 0.1 mm 8 mps 717 mmHg 22%
    11:00 +33°C° 0.1 mm 7 mps 717 mmHg 22%
    12:00 +36°C° 0.1 mm 7 mps 716 mmHg 21%
    13:00 +38°C° 0 mm 7 mps 715 mmHg 19%
    14:00 +39°C° 0 mm 7 mps 714 mmHg 17%
    15:00 +40°C° 0 mm 6 mps 714 mmHg 15%
    16:00 +38°C° 1.1 mm 7 mps 713 mmHg 23%
    17:00 +34°C° 1.1 mm 7 mps 713 mmHg 31%
    18:00 +30°C° 1.1 mm 7 mps 713 mmHg 39%
    19:00 +29°C° 0.6 mm 7 mps 714 mmHg 42%
    20:00 +28°C° 0.6 mm 6 mps 714 mmHg 45%
    21:00 +27°C° 0.6 mm 6 mps 714 mmHg 48%
    22:00 +27°C° 1.8 mm 6 mps 714 mmHg 52%
    23:00 +26°C° 1.8 mm 7 mps 714 mmHg 55%
    Show more